Location: Carson
(33.8314°N, 118.2820°W)
Time: 13:19:59
(UTC+00:00)

Cosmos 1603 - Pass Details

Date: 23 November 2020
Orbit: 831 x 859 km, 71.0° (Epoch: 21 January)

Event Time Altitude Azimuth Distance (km) Brightness Sun altitude
Exits shadow 13:16:17 - 343° (NNW) 3,191 6.4 -15.9°
Reaches altitude 10° 13:18:15 10° 346° (NNW) 2,447 5.8 -15.5°
Maximum altitude 13:23:48 62° 67° (ENE) 937 4.2 -14.4°
Drops below altitude 10° 13:29:22 10° 148° (SSE) 2,449 6.8 -13.3°
Sets 13:31:50 0° 152° (SSE) 3,384 7.6 -12.8°
